Find KuzGTU-1

NORAD ID: 57217 Int'l Des: 2023-091 Owner: KUZGTU Country: RU operational
LEOCIRCULARRETROGRADESSO

リアルタイム位置

3D地球を読み込み中...

KuzGTU-1について

説明を読み込み中...

次回通過

Passes for default location (London). Set your location on the main map for personalized predictions.

高度履歴

Loading altitude history...

軌道要素

1 57217U 23091AV 26106.25996419 .00006347 00000-0 23149-3 0 9999
2 57217 97.5116 170.1627 0009819 320.3080 39.7440 15.28476713154911
Epoch: Apr 16, 2026 • Age: 8 hours

現在のステータス

高度 497.0 km
速度 7.62 km/s
衛星直下点 77.72°N, 72.04°E
打ち上げ日 Jun 27, 2023
運用期間 2.8 years
タイプ other

技術仕様

分類 Payload
質量 3.40 kg
乾燥質量 3.40 kg
総質量 3.40 kg
長さ 0.30 m
直径 0.10 m
スパン 0.30 m
形状 Box
製造者 SPUT
バスタイプ Cubesat 3U
フェーズステータス In Orbit
所有者/国 KUZGTU/RU

Most Searched